Location: College Park
(38.9810°N, 76.9370°W)
Time: 18:12:31
(UTC-04:00)

OTV 5 (USA 277) - Visible Passes

Search period start: 19 April 2019 00:00
Search period end: 29 April 2019 00:00
Orbit: 310 x 325 km, 54.5° (Epoch: 16 April)

Date Brightness Start Highest point End Pass type
(mag) Time Alt. Az. Time Alt. Az. Time Alt. Az.
19 Apr ? 05:41:36 10° NNW 05:44:01 30° NE 05:46:26 10° ESE visible
20 Apr ? 04:23:49 10° NNE 04:24:07 10° NNE 04:24:26 10° NNE visible
20 Apr ? 05:56:09 10° NW 05:58:49 84° SW 06:01:28 10° SE visible
21 Apr ? 04:37:04 10° NNW 04:39:10 20° NE 04:41:14 10° E visible
22 Apr ? 04:51:42 12° NW 04:54:02 52° NE 04:56:38 10° ESE visible
22 Apr ? 21:10:31 10° SSW 21:12:33 36° S 21:12:33 36° S visible
23 Apr ? 05:07:59 31° W 05:08:45 42° SW 05:11:17 10° SSE visible
23 Apr ? 21:25:10 10° WSW 21:27:50 52° NW 21:29:39 18° NNE visible
24 Apr ? 21:40:35 10° W 21:42:43 20° NW 21:44:51 10° NNE visible
25 Apr ? 20:20:20 10° SW 20:23:03 84° SE 20:25:46 10° NE visible
25 Apr ? 21:57:11 10° NW 21:57:45 10° NNW 21:58:18 10° NNW visible
26 Apr ? 20:35:22 10° WSW 20:37:51 30° NW 20:40:20 10° NNE visible
27 Apr ? 20:51:12 10° WNW 20:52:48 14° NNW 20:54:24 10° N visible
